Time,TemperatureF,DewpointF,PressureIn,WindDirection,WindDirectionDegrees,WindSpeedMPH,WindSpeedGustMPH,Humidity,HourlyPrecipIn,Conditions,Clouds,dailyrainin,SoftwareType,DateUTC
2013-11-24 00:02:00,20.4,13.5,30.72,North,359,1.0,6.0,74,0.00,,,0.00,WUHU216DAVISVP2,2013-11-24 06:02:00,
2013-11-24 00:07:00,20.2,13.0,30.72,North,359,4.0,6.0,73,0.00,,,0.00,WUHU216DAVISVP2,2013-11-24 06:07:00,
2013-11-24 00:12:00,20.2,13.0,30.72,NNW,343,4.0,7.0,73,0.00,,,0.00,WUHU216DAVISVP2,2013-11-24 06:12:00,
2013-11-24 00:17:00,20.2,13.0,30.72,NNW,346,2.0,7.0,73,0.00,,,0.00,WUHU216DAVISVP2,2013-11-24 06:17:00,
2013-11-24 00:22:00,20.2,13.0,30.72,NNW,347,1.0,7.0,73,0.00,,,0.00,WUHU216DAVISVP2,2013-11-24 06:22:00,
2013-11-24 00:27:00,20.1,13.2,30.72,NE,35,0.0,11.0,74,0.00,,,0.00,WUHU216DAVISVP2,2013-11-24 06:27:00,
2013-11-24 00:32:00,20.1,13.2,30.72,North,2,4.0,11.0,74,0.00,,,0.00,WUHU216DAVISVP2,2013-11-24 06:32:00,
2013-11-24 00:37:00,20.0,13.1,30.72,NNW,338,2.0,7.0,74,0.00,,,0.00,WUHU216DAVISVP2,2013-11-24 06:37:00,
2013-11-24 00:42:00,20.0,13.4,30.72,NNW,329,3.0,6.0,75,0.00,,,0.00,WUHU216DAVISVP2,2013-11-24 06:42:00,
2013-11-24 00:47:00,19.9,13.3,30.72,NNW,345,3.0,7.0,75,0.00,,,0.00,WUHU216DAVISVP2,2013-11-24 06:47:00,
2013-11-24 00:52:00,19.8,13.2,30.72,NNW,339,2.0,7.0,75,0.00,,,0.00,WUHU216DAVISVP2,2013-11-24 06:52:00,
2013-11-24 00:57:00,19.7,13.1,30.72,NE,46,2.0,5.0,75,0.00,,,0.00,WUHU216DAVISVP2,2013-11-24 06:57:00,
2013-11-24 01:02:00,19.7,13.1,30.73,NNW,342,0.0,5.0,75,0.00,,,0.00,WUHU216DAVISVP2,2013-11-24 07:02:00,
2013-11-24 01:07:00,19.6,13.0,30.73,NE,43,2.0,5.0,75,0.00,,,0.00,WUHU216DAVISVP2,2013-11-24 07:07:00,
2013-11-24 01:12:00,19.5,12.9,30.73,NE,40,0.0,4.0,75,0.00,,,0.00,WUHU216DAVISVP2,2013-11-24 07:12:00,
2013-11-24 01:17:00,19.4,13.1,30.73,NNW,340,3.0,4.0,76,0.00,,,0.00,WUHU216DAVISVP2,2013-11-24 07:17:00,
2013-11-24 01:22:00,19.4,13.1,30.73,North,10,1.0,4.0,76,0.00,,,0.00,WUHU216DAVISVP2,2013-11-24 07:22:00,
2013-11-24 01:27:00,19.3,13.0,30.72,NE,40,0.0,4.0,76,0.00,,,0.00,WUHU216DAVISVP2,2013-11-24 07:27:00,
2013-11-24 01:32:00,19.1,12.8,30.72,NNW,348,2.0,4.0,76,0.00,,,0.00,WUHU216DAVISVP2,2013-11-24 07:32:00,
2013-11-24 01:37:00,19.1,13.1,30.73,NNW,345,0.0,4.0,77,0.00,,,0.00,WUHU216DAVISVP2,2013-11-24 07:37:00,
2013-11-24 01:42:00,19.0,13.0,30.73,NNW,332,1.0,4.0,77,0.00,,,0.00,WUHU216DAVISVP2,2013-11-24 07:42:00,
2013-11-24 01:47:00,18.9,13.2,30.73,North,351,1.0,3.0,78,0.00,,,0.00,WUHU216DAVISVP2,2013-11-24 07:47:00,
2013-11-24 01:52:00,18.8,13.1,30.73,NNW,333,4.0,4.0,78,0.00,,,0.00,WUHU216DAVISVP2,2013-11-24 07:52:00,
2013-11-24 01:57:00,18.8,13.1,30.73,NNW,341,3.0,4.0,78,0.00,,,0.00,WUHU216DAVISVP2,2013-11-24 07:57:00,
2013-11-24 02:02:00,18.7,13.0,30.73,NNW,347,1.0,4.0,78,0.00,,,0.00,WUHU216DAVISVP2,2013-11-24 08:02:00,
2013-11-24 02:07:00,18.7,13.3,30.74,NW,326,2.0,6.0,79,0.00,,,0.00,WUHU216DAVISVP2,2013-11-24 08:07:00,
2013-11-24 02:12:00,18.6,12.6,30.74,NE,49,2.0,6.0,77,0.00,,,0.00,WUHU216DAVISVP2,2013-11-24 08:12:00,
2013-11-24 02:17:00,18.7,12.4,30.74,NE,54,0.0,3.0,76,0.00,,,0.00,WUHU216DAVISVP2,2013-11-24 08:17:00,
2013-11-24 02:22:00,18.6,12.6,30.74,NE,34,0.0,3.0,77,0.00,,,0.00,WUHU216DAVISVP2,2013-11-24 08:22:00,
2013-11-24 02:27:00,18.5,12.8,30.74,NNE,30,1.0,3.0,78,0.00,,,0.00,WUHU216DAVISVP2,2013-11-24 08:27:00,
2013-11-24 02:32:00,18.4,12.4,30.74,NNW,335,0.0,4.0,77,0.00,,,0.00,WUHU216DAVISVP2,2013-11-24 08:32:00,
2013-11-24 02:37:00,18.3,12.9,30.74,NNW,342,3.0,4.0,79,0.00,,,0.00,WUHU216DAVISVP2,2013-11-24 08:37:00,
2013-11-24 02:42:00,18.3,13.2,30.74,NNW,347,1.0,4.0,80,0.00,,,0.00,WUHU216DAVISVP2,2013-11-24 08:42:00,
2013-11-24 02:47:00,18.1,13.0,30.74,NNW,340,2.0,4.0,80,0.00,,,0.00,WUHU216DAVISVP2,2013-11-24 08:47:00,
2013-11-24 02:52:00,18.0,12.9,30.74,North,1,1.0,3.0,80,0.00,,,0.00,WUHU216DAVISVP2,2013-11-24 08:52:00,
2013-11-24 02:57:00,18.0,12.6,30.74,North,8,4.0,6.0,79,0.00,,,0.00,WUHU216DAVISVP2,2013-11-24 08:57:00,
2013-11-24 03:02:00,18.1,12.4,30.74,NW,312,1.0,6.0,78,0.00,,,0.00,WUHU216DAVISVP2,2013-11-24 09:02:00,
2013-11-24 03:07:00,18.1,11.8,30.74,North,6,0.0,4.0,76,0.00,,,0.00,WUHU216DAVISVP2,2013-11-24 09:07:00,
2013-11-24 03:12:00,18.1,11.8,30.73,North,353,0.0,3.0,76,0.00,,,0.00,WUHU216DAVISVP2,2013-11-24 09:12:00,
2013-11-24 03:17:00,17.9,11.6,30.74,North,3,2.0,3.0,76,0.00,,,0.00,WUHU216DAVISVP2,2013-11-24 09:17:00,
2013-11-24 03:22:00,17.9,12.2,30.74,NNW,338,3.0,4.0,78,0.00,,,0.00,WUHU216DAVISVP2,2013-11-24 09:22:00,
2013-11-24 03:27:00,17.8,12.4,30.74,NNW,335,2.0,4.0,79,0.00,,,0.00,WUHU216DAVISVP2,2013-11-24 09:27:00,
2013-11-24 03:32:00,17.7,12.6,30.73,NNW,342,2.0,3.0,80,0.00,,,0.00,WUHU216DAVISVP2,2013-11-24 09:32:00,
2013-11-24 03:37:00,17.6,12.8,30.74,NNW,341,4.0,5.0,81,0.00,,,0.00,WUHU216DAVISVP2,2013-11-24 09:37:00,
2013-11-24 03:42:00,17.6,12.5,30.74,North,1,0.0,5.0,80,0.00,,,0.00,WUHU216DAVISVP2,2013-11-24 09:42:00,
2013-11-24 03:47:00,17.5,12.1,30.74,NNW,329,1.0,5.0,79,0.00,,,0.00,WUHU216DAVISVP2,2013-11-24 09:47:00,
2013-11-24 03:52:00,17.5,11.5,30.74,NE,51,1.0,4.0,77,0.00,,,0.00,WUHU216DAVISVP2,2013-11-24 09:52:00,
2013-11-24 03:57:00,17.4,11.2,30.73,NNW,338,1.0,4.0,76,0.00,,,0.00,WUHU216DAVISVP2,2013-11-24 09:57:00,
2013-11-24 04:02:00,17.4,11.1,30.73,NNE,27,3.0,3.0,76,0.00,,,0.00,WUHU216DAVISVP2,2013-11-24 10:02:00,
2013-11-24 04:07:00,17.3,11.1,30.74,NNW,328,2.0,3.0,76,0.00,,,0.00,WUHU216DAVISVP2,2013-11-24 10:07:00,
2013-11-24 04:12:00,17.3,11.0,30.74,NE,36,0.0,3.0,76,0.00,,,0.00,WUHU216DAVISVP2,2013-11-24 10:12:00,
2013-11-24 04:17:00,17.1,10.9,30.74,North,354,1.0,3.0,76,0.00,,,0.00,WUHU216DAVISVP2,2013-11-24 10:17:00,
2013-11-24 04:22:00,17.1,11.4,30.74,NNW,337,2.0,3.0,78,0.00,,,0.00,WUHU216DAVISVP2,2013-11-24 10:22:00,
2013-11-24 04:27:00,17.0,11.3,30.74,NW,323,0.0,3.0,78,0.00,,,0.00,WUHU216DAVISVP2,2013-11-24 10:27:00,
2013-11-24 04:32:00,16.8,11.1,30.74,NW,321,2.0,3.0,78,0.00,,,0.00,WUHU216DAVISVP2,2013-11-24 10:32:00,
2013-11-24 04:37:00,16.9,11.2,30.74,NNW,338,1.0,3.0,78,0.00,,,0.00,WUHU216DAVISVP2,2013-11-24 10:37:00,
2013-11-24 04:42:00,16.8,11.1,30.74,NNW,333,1.0,3.0,78,0.00,,,0.00,WUHU216DAVISVP2,2013-11-24 10:42:00,
2013-11-24 04:47:00,16.8,11.4,30.74,NNW,332,2.0,2.0,79,0.00,,,0.00,WUHU216DAVISVP2,2013-11-24 10:47:00,
2013-11-24 04:52:00,16.8,11.7,30.74,NNW,334,1.0,2.0,80,0.00,,,0.00,WUHU216DAVISVP2,2013-11-24 10:52:00,
2013-11-24 04:57:00,16.7,11.6,30.75,NNW,330,1.0,2.0,80,0.00,,,0.00,WUHU216DAVISVP2,2013-11-24 10:57:00,
2013-11-24 05:02:00,16.7,11.6,30.75,NNW,330,3.0,3.0,80,0.00,,,0.00,WUHU216DAVISVP2,2013-11-24 11:02:00,
2013-11-24 05:07:00,16.7,11.9,30.75,NNW,334,2.0,4.0,81,0.00,,,0.00,WUHU216DAVISVP2,2013-11-24 11:07:00,
2013-11-24 05:12:00,16.8,12.3,30.75,NNW,340,4.0,4.0,82,0.00,,,0.00,WUHU216DAVISVP2,2013-11-24 11:12:00,
2013-11-24 05:17:00,16.8,12.0,30.75,NNW,331,2.0,5.0,81,0.00,,,0.00,WUHU216DAVISVP2,2013-11-24 11:17:00,
2013-11-24 05:22:00,16.8,12.0,30.76,NNW,341,3.0,5.0,81,0.00,,,0.00,WUHU216DAVISVP2,2013-11-24 11:22:00,
2013-11-24 05:27:00,16.8,12.0,30.76,NNW,339,3.0,5.0,81,0.00,,,0.00,WUHU216DAVISVP2,2013-11-24 11:27:00,
2013-11-24 05:32:00,16.8,12.0,30.76,North,354,3.0,5.0,81,0.00,,,0.00,WUHU216DAVISVP2,2013-11-24 11:32:00,
2013-11-24 05:37:00,16.8,12.3,30.76,NNW,328,5.0,5.0,82,0.00,,,0.00,WUHU216DAVISVP2,2013-11-24 11:37:00,
2013-11-24 05:42:00,16.7,11.9,30.76,NNW,337,4.0,5.0,81,0.00,,,0.00,WUHU216DAVISVP2,2013-11-24 11:42:00,
2013-11-24 05:47:00,16.7,12.1,30.76,NNW,340,3.0,5.0,82,0.00,,,0.00,WUHU216DAVISVP2,2013-11-24 11:47:00,
2013-11-24 05:52:00,16.6,12.0,30.76,NNW,339,2.0,4.0,82,0.00,,,0.00,WUHU216DAVISVP2,2013-11-24 11:52:00,
2013-11-24 05:57:00,16.6,12.0,30.76,North,355,2.0,4.0,82,0.00,,,0.00,WUHU216DAVISVP2,2013-11-24 11:57:00,
2013-11-24 06:02:00,16.6,12.1,30.76,NW,323,2.0,5.0,82,0.00,,,0.00,WUHU216DAVISVP2,2013-11-24 12:02:00,
2013-11-24 06:07:00,16.6,12.1,30.77,NW,321,2.0,5.0,82,0.00,,,0.00,WUHU216DAVISVP2,2013-11-24 12:07:00,
2013-11-24 06:12:00,16.5,12.0,30.76,NNW,335,4.0,4.0,82,0.00,,,0.00,WUHU216DAVISVP2,2013-11-24 12:12:00,
2013-11-24 06:17:00,16.6,12.0,30.77,NW,321,3.0,5.0,82,0.00,,,0.00,WUHU216DAVISVP2,2013-11-24 12:17:00,
2013-11-24 06:22:00,16.6,11.8,30.77,NNW,330,2.0,5.0,81,0.00,,,0.00,WUHU216DAVISVP2,2013-11-24 12:22:00,
2013-11-24 06:27:00,16.6,11.8,30.77,NW,323,3.0,4.0,81,0.00,,,0.00,WUHU216DAVISVP2,2013-11-24 12:27:00,
2013-11-24 06:32:00,16.6,11.8,30.77,North,4,4.0,5.0,81,0.00,,,0.00,WUHU216DAVISVP2,2013-11-24 12:32:00,
2013-11-24 06:37:00,16.6,11.8,30.77,NNW,342,3.0,5.0,81,0.00,,,0.00,WUHU216DAVISVP2,2013-11-24 12:37:00,
2013-11-24 06:42:00,16.7,11.9,30.77,NNW,338,4.0,6.0,81,0.00,,,0.00,WUHU216DAVISVP2,2013-11-24 12:42:00,
2013-11-24 06:47:00,16.7,11.6,30.78,NNW,343,3.0,6.0,80,0.00,,,0.00,WUHU216DAVISVP2,2013-11-24 12:47:00,
2013-11-24 06:52:00,16.7,11.3,30.77,NNW,344,4.0,6.0,79,0.00,,,0.00,WUHU216DAVISVP2,2013-11-24 12:52:00,
2013-11-24 06:57:00,16.6,11.5,30.78,North,354,4.0,6.0,80,0.00,,,0.00,WUHU216DAVISVP2,2013-11-24 12:57:00,
2013-11-24 07:02:00,16.6,11.5,30.77,NNW,336,2.0,5.0,80,0.00,,,0.00,WUHU216DAVISVP2,2013-11-24 13:02:00,
2013-11-24 07:07:00,16.6,11.5,30.77,NNW,330,2.0,4.0,80,0.00,,,0.00,WUHU216DAVISVP2,2013-11-24 13:07:00,
2013-11-24 07:12:00,16.8,11.7,30.77,NNW,347,2.0,3.0,80,0.00,,,0.00,WUHU216DAVISVP2,2013-11-24 13:12:00,
2013-11-24 07:17:00,17.0,11.6,30.77,NE,49,0.0,4.0,79,0.00,,,0.00,WUHU216DAVISVP2,2013-11-24 13:17:00,
2013-11-24 07:22:00,17.3,11.9,30.77,NNW,333,3.0,4.0,79,0.00,,,0.00,WUHU216DAVISVP2,2013-11-24 13:22:00,
2013-11-24 07:27:00,17.4,12.0,30.77,NNW,343,3.0,7.0,79,0.00,,,0.00,WUHU216DAVISVP2,2013-11-24 13:27:00,
2013-11-24 07:32:00,17.5,12.1,30.77,NNW,334,2.0,7.0,79,0.00,,,0.00,WUHU216DAVISVP2,2013-11-24 13:32:00,
2013-11-24 07:37:00,17.5,11.8,30.77,NNW,343,3.0,7.0,78,0.00,,,0.00,WUHU216DAVISVP2,2013-11-24 13:37:00,
2013-11-24 07:42:00,17.8,12.4,30.78,NE,42,1.0,7.0,79,0.00,,,0.00,WUHU216DAVISVP2,2013-11-24 13:42:00,
2013-11-24 07:47:00,18.1,12.4,30.78,NE,41,7.0,8.0,78,0.00,,,0.00,WUHU216DAVISVP2,2013-11-24 13:47:00,
2013-11-24 07:52:00,18.3,12.3,30.78,NNW,342,1.0,8.0,77,0.00,,,0.00,WUHU216DAVISVP2,2013-11-24 13:52:00,
2013-11-24 07:57:00,18.6,12.3,30.78,NNW,344,3.0,5.0,76,0.00,,,0.00,WUHU216DAVISVP2,2013-11-24 13:57:00,
2013-11-24 08:02:00,18.8,11.9,30.79,North,2,1.0,5.0,74,0.00,,,0.00,WUHU216DAVISVP2,2013-11-24 14:02:00,
2013-11-24 08:07:00,18.9,12.0,30.79,NNE,25,3.0,7.0,74,0.00,,,0.00,WUHU216DAVISVP2,2013-11-24 14:07:00,
2013-11-24 08:12:00,19.1,11.9,30.79,NNE,33,1.0,7.0,73,0.00,,,0.00,WUHU216DAVISVP2,2013-11-24 14:12:00,
2013-11-24 08:17:00,19.2,12.0,30.79,NE,42,4.0,8.0,73,0.00,,,0.00,WUHU216DAVISVP2,2013-11-24 14:17:00,
2013-11-24 08:22:00,19.4,10.6,30.79,NW,320,2.0,8.0,68,0.00,,,0.00,WUHU216DAVISVP2,2013-11-24 14:22:00,
2013-11-24 08:27:00,19.7,10.9,30.79,ENE,65,5.0,8.0,68,0.00,,,0.00,WUHU216DAVISVP2,2013-11-24 14:27:00,
2013-11-24 08:32:00,19.8,10.9,30.80,NE,37,4.0,8.0,68,0.00,,,0.00,WUHU216DAVISVP2,2013-11-24 14:32:00,
2013-11-24 08:37:00,19.9,10.4,30.80,NNE,23,3.0,5.0,66,0.00,,,0.00,WUHU216DAVISVP2,2013-11-24 14:37:00,
2013-11-24 08:42:00,20.1,10.9,30.79,NE,37,0.0,7.0,67,0.00,,,0.00,WUHU216DAVISVP2,2013-11-24 14:42:00,
2013-11-24 08:47:00,20.1,10.9,30.80,East,84,2.0,10.0,67,0.00,,,0.00,WUHU216DAVISVP2,2013-11-24 14:47:00,
2013-11-24 08:52:00,20.6,11.4,30.79,NNW,335,5.0,10.0,67,0.00,,,0.00,WUHU216DAVISVP2,2013-11-24 14:52:00,
2013-11-24 08:57:00,20.7,11.5,30.79,ENE,66,4.0,7.0,67,0.00,,,0.00,WUHU216DAVISVP2,2013-11-24 14:57:00,
2013-11-24 09:02:00,20.6,11.4,30.78,ENE,77,5.0,7.0,67,0.00,,,0.00,WUHU216DAVISVP2,2013-11-24 15:02:00,
2013-11-24 09:07:00,20.7,11.2,30.79,NE,54,4.0,8.0,66,0.00,,,0.00,WUHU216DAVISVP2,2013-11-24 15:07:00,
2013-11-24 09:11:00,20.6,11.4,30.78,ENE,72,3.0,8.0,67,0.00,,,0.00,WUHU216DAVISVP2,2013-11-24 15:11:00,
2013-11-24 09:16:00,21.2,12.3,30.78,NE,56,8.0,8.0,68,0.00,,,0.00,WUHU216DAVISVP2,2013-11-24 15:16:00,
2013-11-24 09:21:00,21.0,11.1,30.78,NE,37,6.0,8.0,65,0.00,,,0.00,WUHU216DAVISVP2,2013-11-24 15:21:00,
2013-11-24 09:26:00,21.1,11.6,30.78,NE,51,4.0,8.0,66,0.00,,,0.00,WUHU216DAVISVP2,2013-11-24 15:26:00,
2013-11-24 09:31:00,21.2,12.0,30.78,ENE,58,4.0,7.0,67,0.00,,,0.00,WUHU216DAVISVP2,2013-11-24 15:31:00,
2013-11-24 09:36:00,21.3,11.4,30.78,NE,56,5.0,7.0,65,0.00,,,0.00,WUHU216DAVISVP2,2013-11-24 15:36:00,
2013-11-24 09:41:00,21.2,11.3,30.78,NW,323,2.0,9.0,65,0.00,,,0.00,WUHU216DAVISVP2,2013-11-24 15:41:00,
2013-11-24 09:46:00,21.7,12.1,30.78,ESE,108,5.0,9.0,66,0.00,,,0.00,WUHU216DAVISVP2,2013-11-24 15:46:00,
2013-11-24 09:51:00,21.8,11.2,30.78,NE,36,3.0,9.0,63,0.00,,,0.00,WUHU216DAVISVP2,2013-11-24 15:51:00,
2013-11-24 09:56:00,21.8,11.2,30.78,ENE,60,3.0,9.0,63,0.00,,,0.00,WUHU216DAVISVP2,2013-11-24 15:56:00,
2013-11-24 10:02:00,22.0,11.4,30.78,ENE,59,5.0,8.0,63,0.00,,,0.00,WUHU216DAVISVP2,2013-11-24 16:02:00,
2013-11-24 10:07:00,21.7,11.0,30.78,NE,45,4.0,9.0,63,0.00,,,0.00,WUHU216DAVISVP2,2013-11-24 16:07:00,
2013-11-24 10:12:00,21.9,11.6,30.77,ENE,58,2.0,9.0,64,0.00,,,0.00,WUHU216DAVISVP2,2013-11-24 16:12:00,
2013-11-24 10:17:00,22.4,11.8,30.77,ENE,75,5.0,7.0,63,0.00,,,0.00,WUHU216DAVISVP2,2013-11-24 16:17:00,
2013-11-24 10:22:00,22.5,11.8,30.77,NE,55,4.0,7.0,63,0.00,,,0.00,WUHU216DAVISVP2,2013-11-24 16:22:00,
2013-11-24 10:27:00,22.7,12.0,30.76,NNW,337,2.0,7.0,63,0.00,,,0.00,WUHU216DAVISVP2,2013-11-24 16:27:00,
2013-11-24 10:32:00,23.0,12.0,30.76,NE,43,0.0,8.0,62,0.00,,,0.00,WUHU216DAVISVP2,2013-11-24 16:32:00,
2013-11-24 10:37:00,22.8,11.4,30.76,East,89,2.0,8.0,61,0.00,,,0.00,WUHU216DAVISVP2,2013-11-24 16:37:00,
2013-11-24 10:42:00,23.1,11.3,30.76,East,100,1.0,8.0,60,0.00,,,0.00,WUHU216DAVISVP2,2013-11-24 16:42:00,
2013-11-24 10:47:00,23.2,11.8,30.75,NNW,328,4.0,7.0,61,0.00,,,0.00,WUHU216DAVISVP2,2013-11-24 16:47:00,
2013-11-24 10:52:00,23.3,11.9,30.75,NNW,333,3.0,6.0,61,0.00,,,0.00,WUHU216DAVISVP2,2013-11-24 16:52:00,
2013-11-24 10:57:00,24.0,12.9,30.75,NE,49,1.0,6.0,62,0.00,,,0.00,WUHU216DAVISVP2,2013-11-24 16:57:00,
2013-11-24 11:02:00,23.9,11.7,30.74,SSW,200,0.0,7.0,59,0.00,,,0.00,WUHU216DAVISVP2,2013-11-24 17:02:00,
2013-11-24 11:07:00,24.8,14.0,30.74,East,82,3.0,7.0,63,0.00,,,0.00,WUHU216DAVISVP2,2013-11-24 17:07:00,
2013-11-24 11:12:00,24.7,12.8,30.73,NE,56,5.0,7.0,60,0.00,,,0.00,WUHU216DAVISVP2,2013-11-24 17:12:00,
2013-11-24 11:17:00,24.8,12.9,30.73,NE,51,0.0,7.0,60,0.00,,,0.00,WUHU216DAVISVP2,2013-11-24 17:17:00,
2013-11-24 11:22:00,25.4,13.9,30.73,ENE,62,5.0,5.0,61,0.00,,,0.00,WUHU216DAVISVP2,2013-11-24 17:22:00,
2013-11-24 11:27:00,25.2,12.9,30.72,ENE,69,2.0,7.0,59,0.00,,,0.00,WUHU216DAVISVP2,2013-11-24 17:27:00,
2013-11-24 11:32:00,25.3,12.6,30.72,NE,47,1.0,7.0,58,0.00,,,0.00,WUHU216DAVISVP2,2013-11-24 17:32:00,
2013-11-24 11:37:00,25.6,13.3,30.72,East,96,3.0,6.0,59,0.00,,,0.00,WUHU216DAVISVP2,2013-11-24 17:37:00,
2013-11-24 11:42:00,25.7,13.7,30.71,NW,313,4.0,6.0,60,0.00,,,0.00,WUHU216DAVISVP2,2013-11-24 17:42:00,
2013-11-24 11:47:00,25.9,12.8,30.71,NNW,342,0.0,6.0,57,0.00,,,0.00,WUHU216DAVISVP2,2013-11-24 17:47:00,
2013-11-24 11:52:00,25.8,12.7,30.71,NE,39,1.0,6.0,57,0.00,,,0.00,WUHU216DAVISVP2,2013-11-24 17:52:00,
2013-11-24 11:57:00,26.2,13.0,30.71,SE,145,1.0,9.0,57,0.00,,,0.00,WUHU216DAVISVP2,2013-11-24 17:57:00,
2013-11-24 12:02:00,26.5,12.9,30.70,East,91,2.0,9.0,56,0.00,,,0.00,WUHU216DAVISVP2,2013-11-24 18:02:00,
2013-11-24 12:07:00,27.0,14.6,30.70,SSE,165,3.0,5.0,59,0.00,,,0.00,WUHU216DAVISVP2,2013-11-24 18:07:00,
2013-11-24 12:12:00,27.5,14.2,30.70,SSE,149,0.0,4.0,57,0.00,,,0.00,WUHU216DAVISVP2,2013-11-24 18:12:00,
2013-11-24 12:17:00,27.9,13.4,30.69,NE,49,4.0,5.0,54,0.00,,,0.00,WUHU216DAVISVP2,2013-11-24 18:17:00,
2013-11-24 12:22:00,27.3,12.8,30.69,NE,51,2.0,5.0,54,0.00,,,0.00,WUHU216DAVISVP2,2013-11-24 18:22:00,
2013-11-24 12:27:00,27.3,11.5,30.69,NNW,339,1.0,4.0,51,0.00,,,0.00,WUHU216DAVISVP2,2013-11-24 18:27:00,
2013-11-24 12:32:00,27.5,12.6,30.69,WNW,302,1.0,3.0,53,0.00,,,0.00,WUHU216DAVISVP2,2013-11-24 18:32:00,
2013-11-24 12:37:00,27.9,12.5,30.68,NNW,335,1.0,3.0,52,0.00,,,0.00,WUHU216DAVISVP2,2013-11-24 18:37:00,
2013-11-24 12:42:00,28.0,13.1,30.68,SSE,160,0.0,3.0,53,0.00,,,0.00,WUHU216DAVISVP2,2013-11-24 18:42:00,
2013-11-24 12:47:00,27.6,11.3,30.68,East,94,0.0,6.0,50,0.00,,,0.00,WUHU216DAVISVP2,2013-11-24 18:47:00,
2013-11-24 12:52:00,27.2,10.5,30.67,NE,44,0.0,7.0,49,0.00,,,0.00,WUHU216DAVISVP2,2013-11-24 18:52:00,
2013-11-24 12:57:00,27.9,11.6,30.67,ESE,105,1.0,7.0,50,0.00,,,0.00,WUHU216DAVISVP2,2013-11-24 18:57:00,
2013-11-24 13:02:00,28.0,11.2,30.67,ENE,65,6.0,6.0,49,0.00,,,0.00,WUHU216DAVISVP2,2013-11-24 19:02:00,
2013-11-24 13:07:00,27.8,10.1,30.67,ENE,68,3.0,6.0,47,0.00,,,0.00,WUHU216DAVISVP2,2013-11-24 19:07:00,
2013-11-24 13:12:00,27.7,10.5,30.67,East,79,3.0,7.0,48,0.00,,,0.00,WUHU216DAVISVP2,2013-11-24 19:12:00,
2013-11-24 13:17:00,27.6,10.8,30.66,NNE,25,0.0,7.0,49,0.00,,,0.00,WUHU216DAVISVP2,2013-11-24 19:17:00,
2013-11-24 13:22:00,27.8,10.5,30.66,NNE,29,2.0,6.0,48,0.00,,,0.00,WUHU216DAVISVP2,2013-11-24 19:22:00,
2013-11-24 13:27:00,28.5,11.7,30.66,SE,141,1.0,5.0,49,0.00,,,0.00,WUHU216DAVISVP2,2013-11-24 19:27:00,
2013-11-24 13:32:00,29.2,10.3,30.66,East,94,2.0,3.0,45,0.00,,,0.00,WUHU216DAVISVP2,2013-11-24 19:32:00,
2013-11-24 13:37:00,28.9,11.6,30.65,NE,51,3.0,4.0,48,0.00,,,0.00,WUHU216DAVISVP2,2013-11-24 19:37:00,
2013-11-24 13:42:00,28.9,10.1,30.65,NE,34,0.0,5.0,45,0.00,,,0.00,WUHU216DAVISVP2,2013-11-24 19:42:00,
2013-11-24 13:47:00,28.8,11.1,30.65,ENE,58,3.0,5.0,47,0.00,,,0.00,WUHU216DAVISVP2,2013-11-24 19:47:00,
2013-11-24 13:52:00,29.2,11.8,30.65,SW,230,1.0,4.0,48,0.00,,,0.00,WUHU216DAVISVP2,2013-11-24 19:52:00,
2013-11-24 13:57:00,29.4,11.5,30.65,WNW,293,0.0,3.0,47,0.00,,,0.00,WUHU216DAVISVP2,2013-11-24 19:57:00,
2013-11-24 14:02:00,30.3,11.4,30.65,NE,37,0.0,3.0,45,0.00,,,0.00,WUHU216DAVISVP2,2013-11-24 20:02:00,
2013-11-24 14:07:00,29.3,9.9,30.66,ENE,63,2.0,6.0,44,0.00,,,0.00,WUHU216DAVISVP2,2013-11-24 20:07:00,
2013-11-24 14:12:00,29.1,10.3,30.65,East,96,2.0,6.0,45,0.00,,,0.00,WUHU216DAVISVP2,2013-11-24 20:12:00,
2013-11-24 14:17:00,29.1,9.2,30.65,ENE,58,1.0,5.0,43,0.00,,,0.00,WUHU216DAVISVP2,2013-11-24 20:17:00,
2013-11-24 14:22:00,30.1,12.2,30.64,SW,216,0.0,4.0,47,0.00,,,0.00,WUHU216DAVISVP2,2013-11-24 20:22:00,
2013-11-24 14:27:00,30.2,10.2,30.64,ENE,68,4.0,5.0,43,0.00,,,0.00,WUHU216DAVISVP2,2013-11-24 20:27:00,
2013-11-24 14:32:00,29.6,11.7,30.64,NNE,27,0.0,5.0,47,0.00,,,0.00,WUHU216DAVISVP2,2013-11-24 20:32:00,
2013-11-24 14:37:00,30.1,10.7,30.64,NE,56,4.0,5.0,44,0.00,,,0.00,WUHU216DAVISVP2,2013-11-24 20:37:00,
2013-11-24 14:42:00,29.3,8.9,30.64,ENE,72,4.0,6.0,42,0.00,,,0.00,WUHU216DAVISVP2,2013-11-24 20:42:00,
2013-11-24 14:47:00,29.1,9.7,30.65,NE,53,4.0,7.0,44,0.00,,,0.00,WUHU216DAVISVP2,2013-11-24 20:47:00,
2013-11-24 14:52:00,29.0,9.6,30.65,East,90,2.0,7.0,44,0.00,,,0.00,WUHU216DAVISVP2,2013-11-24 20:52:00,
2013-11-24 14:57:00,29.0,9.6,30.64,East,98,0.0,6.0,44,0.00,,,0.00,WUHU216DAVISVP2,2013-11-24 20:57:00,
2013-11-24 15:02:00,29.4,9.5,30.64,SW,228,0.0,3.0,43,0.00,,,0.00,WUHU216DAVISVP2,2013-11-24 21:02:00,
2013-11-24 15:07:00,29.5,9.6,30.64,SW,233,0.0,2.0,43,0.00,,,0.00,WUHU216DAVISVP2,2013-11-24 21:07:00,
2013-11-24 15:12:00,29.6,10.2,30.63,NNW,332,1.0,3.0,44,0.00,,,0.00,WUHU216DAVISVP2,2013-11-24 21:12:00,
2013-11-24 15:17:00,29.3,10.9,30.63,NE,56,2.0,3.0,46,0.00,,,0.00,WUHU216DAVISVP2,2013-11-24 21:17:00,
2013-11-24 15:22:00,29.2,11.4,30.63,ENE,75,0.0,3.0,47,0.00,,,0.00,WUHU216DAVISVP2,2013-11-24 21:22:00,
2013-11-24 15:27:00,29.0,10.8,30.63,NNW,335,0.0,4.0,46,0.00,,,0.00,WUHU216DAVISVP2,2013-11-24 21:27:00,
2013-11-24 15:32:00,28.7,10.4,30.63,East,84,1.0,4.0,46,0.00,,,0.00,WUHU216DAVISVP2,2013-11-24 21:32:00,
2013-11-24 15:37:00,28.6,10.8,30.63,ENE,65,2.0,3.0,47,0.00,,,0.00,WUHU216DAVISVP2,2013-11-24 21:37:00,
2013-11-24 15:42:00,28.5,11.2,30.63,NNE,33,0.0,3.0,48,0.00,,,0.00,WUHU216DAVISVP2,2013-11-24 21:42:00,
2013-11-24 15:47:00,28.4,11.6,30.63,ENE,77,1.0,2.0,49,0.00,,,0.00,WUHU216DAVISVP2,2013-11-24 21:47:00,
2013-11-24 15:52:00,28.3,11.0,30.63,ENE,67,3.0,3.0,48,0.00,,,0.00,WUHU216DAVISVP2,2013-11-24 21:52:00,
2013-11-24 15:57:00,28.1,10.8,30.63,ENE,60,2.0,4.0,48,0.00,,,0.00,WUHU216DAVISVP2,2013-11-24 21:57:00,
2013-11-24 16:02:00,28.0,10.7,30.62,East,84,1.0,4.0,48,0.00,,,0.00,WUHU216DAVISVP2,2013-11-24 22:02:00,
2013-11-24 16:07:00,27.9,10.2,30.62,ENE,68,2.0,3.0,47,0.00,,,0.00,WUHU216DAVISVP2,2013-11-24 22:07:00,
2013-11-24 16:12:00,27.8,10.1,30.62,ENE,68,2.0,3.0,47,0.00,,,0.00,WUHU216DAVISVP2,2013-11-24 22:12:00,
2013-11-24 16:17:00,27.7,10.5,30.62,East,79,1.0,2.0,48,0.00,,,0.00,WUHU216DAVISVP2,2013-11-24 22:17:00,
2013-11-24 16:22:00,27.6,10.8,30.61,East,79,1.0,2.0,49,0.00,,,0.00,WUHU216DAVISVP2,2013-11-24 22:22:00,
2013-11-24 16:27:00,27.5,10.3,30.61,ENE,76,1.0,2.0,48,0.00,,,0.00,WUHU216DAVISVP2,2013-11-24 22:27:00,
2013-11-24 16:32:00,27.4,11.1,30.61,ENE,74,1.0,1.0,50,0.00,,,0.00,WUHU216DAVISVP2,2013-11-24 22:32:00,
2013-11-24 16:37:00,27.3,11.0,30.61,ENE,74,0.0,1.0,50,0.00,,,0.00,WUHU216DAVISVP2,2013-11-24 22:37:00,
2013-11-24 16:42:00,27.1,10.8,30.61,ENE,74,0.0,1.0,50,0.00,,,0.00,WUHU216DAVISVP2,2013-11-24 22:42:00,
2013-11-24 16:47:00,26.8,11.0,30.61,ENE,75,0.0,0.0,51,0.00,,,0.00,WUHU216DAVISVP2,2013-11-24 22:47:00,
2013-11-24 16:52:00,26.5,11.6,30.61,ENE,75,0.0,0.0,53,0.00,,,0.00,WUHU216DAVISVP2,2013-11-24 22:52:00,
2013-11-24 16:57:00,26.2,11.8,30.61,ENE,75,0.0,0.0,54,0.00,,,0.00,WUHU216DAVISVP2,2013-11-24 22:57:00,
2013-11-24 17:02:00,25.7,11.3,30.61,ENE,75,0.0,0.0,54,0.00,,,0.00,WUHU216DAVISVP2,2013-11-24 23:02:00,
2013-11-24 17:07:00,25.4,10.6,30.61,ENE,75,0.0,0.0,53,0.00,,,0.00,WUHU216DAVISVP2,2013-11-24 23:07:00,
2013-11-24 17:12:00,25.3,11.4,30.61,ENE,75,0.0,0.0,55,0.00,,,0.00,WUHU216DAVISVP2,2013-11-24 23:12:00,
2013-11-24 17:17:00,25.3,11.4,30.61,ENE,75,0.0,0.0,55,0.00,,,0.00,WUHU216DAVISVP2,2013-11-24 23:17:00,
2013-11-24 17:22:00,25.5,13.2,30.61,ENE,75,0.0,0.0,59,0.00,,,0.00,WUHU216DAVISVP2,2013-11-24 23:22:00,
2013-11-24 17:27:00,25.7,13.0,30.61,ENE,75,0.0,0.0,58,0.00,,,0.00,WUHU216DAVISVP2,2013-11-24 23:27:00,
2013-11-24 17:32:00,25.7,13.0,30.61,ENE,75,0.0,0.0,58,0.00,,,0.00,WUHU216DAVISVP2,2013-11-24 23:32:00,
2013-11-24 17:44:00,25.7,14.5,30.60,ENE,75,0.0,0.0,62,0.00,,,0.00,WUHU216DAVISVP2,2013-11-24 23:44:00,
2013-11-24 17:49:00,25.6,14.4,30.60,ENE,75,0.0,0.0,62,0.00,,,0.00,WUHU216DAVISVP2,2013-11-24 23:49:00,
2013-11-24 17:54:00,25.5,14.7,30.60,ENE,75,0.0,0.0,63,0.00,,,0.00,WUHU216DAVISVP2,2013-11-24 23:54:00,
2013-11-24 17:59:00,25.3,14.5,30.60,ENE,75,0.0,0.0,63,0.00,,,0.00,WUHU216DAVISVP2,2013-11-24 23:59:00,
2013-11-24 18:04:00,25.2,15.1,30.60,ENE,75,0.0,0.0,65,0.00,,,0.00,WUHU216DAVISVP2,2013-11-25 00:04:00,
2013-11-24 18:09:00,25.3,14.8,30.59,ENE,75,0.0,0.0,64,0.00,,,0.00,WUHU216DAVISVP2,2013-11-25 00:09:00,
2013-11-24 18:14:00,25.3,14.8,30.60,ENE,75,0.0,0.0,64,0.00,,,0.00,WUHU216DAVISVP2,2013-11-25 00:14:00,
2013-11-24 18:19:00,25.1,15.0,30.60,ENE,75,0.0,0.0,65,0.00,,,0.00,WUHU216DAVISVP2,2013-11-25 00:19:00,
2013-11-24 18:24:00,24.9,14.1,30.60,ENE,75,0.0,0.0,63,0.00,,,0.00,WUHU216DAVISVP2,2013-11-25 00:24:00,
2013-11-24 18:29:00,24.9,13.8,30.59,ENE,75,0.0,0.0,62,0.00,,,0.00,WUHU216DAVISVP2,2013-11-25 00:29:00,
2013-11-24 18:34:00,25.0,13.9,30.59,ENE,75,0.0,0.0,62,0.00,,,0.00,WUHU216DAVISVP2,2013-11-25 00:34:00,
2013-11-24 18:39:00,25.0,13.8,30.59,ENE,75,0.0,0.0,62,0.00,,,0.00,WUHU216DAVISVP2,2013-11-25 00:39:00,
2013-11-24 18:44:00,24.9,13.7,30.60,ENE,75,0.0,0.0,62,0.00,,,0.00,WUHU216DAVISVP2,2013-11-25 00:44:00,
2013-11-24 18:49:00,24.7,13.6,30.60,ENE,75,0.0,0.0,62,0.00,,,0.00,WUHU216DAVISVP2,2013-11-25 00:49:00,
2013-11-24 18:54:00,24.8,13.7,30.59,ENE,75,0.0,0.0,62,0.00,,,0.00,WUHU216DAVISVP2,2013-11-25 00:54:00,
2013-11-24 18:59:00,25.0,14.6,30.59,ENE,75,0.0,0.0,64,0.00,,,0.00,WUHU216DAVISVP2,2013-11-25 00:59:00,
2013-11-24 19:04:00,25.0,15.3,30.59,ENE,75,0.0,0.0,66,0.00,,,0.00,WUHU216DAVISVP2,2013-11-25 01:04:00,
2013-11-24 19:09:00,24.9,14.9,30.59,ENE,75,0.0,0.0,65,0.00,,,0.00,WUHU216DAVISVP2,2013-11-25 01:09:00,
2013-11-24 19:14:00,24.8,15.0,30.59,ENE,75,0.0,0.0,66,0.00,,,0.00,WUHU216DAVISVP2,2013-11-25 01:14:00,
2013-11-24 19:19:00,24.8,15.5,30.58,ENE,75,0.0,0.0,67,0.00,,,0.00,WUHU216DAVISVP2,2013-11-25 01:19:00,
2013-11-24 19:24:00,24.9,14.8,30.58,ENE,74,0.0,0.0,65,0.00,,,0.00,WUHU216DAVISVP2,2013-11-25 01:24:00,
2013-11-24 19:29:00,25.0,14.6,30.58,ENE,73,1.0,1.0,64,0.00,,,0.00,WUHU216DAVISVP2,2013-11-25 01:29:00,
2013-11-24 19:34:00,25.1,14.7,30.58,ENE,67,0.0,2.0,64,0.00,,,0.00,WUHU216DAVISVP2,2013-11-25 01:34:00,
2013-11-24 19:39:00,25.2,15.1,30.57,ENE,67,1.0,2.0,65,0.00,,,0.00,WUHU216DAVISVP2,2013-11-25 01:39:00,
2013-11-24 19:44:00,25.2,15.5,30.57,ENE,68,0.0,1.0,66,0.00,,,0.00,WUHU216DAVISVP2,2013-11-25 01:44:00,
2013-11-24 19:49:00,25.1,15.4,30.57,East,83,0.0,1.0,66,0.00,,,0.00,WUHU216DAVISVP2,2013-11-25 01:49:00,
2013-11-24 19:54:00,25.1,15.7,30.57,East,83,0.0,0.0,67,0.00,,,0.00,WUHU216DAVISVP2,2013-11-25 01:54:00,
2013-11-24 19:59:00,25.2,15.4,30.57,East,79,0.0,0.0,66,0.00,,,0.00,WUHU216DAVISVP2,2013-11-25 01:59:00,
2013-11-24 20:04:00,25.3,15.5,30.57,East,84,0.0,0.0,66,0.00,,,0.00,WUHU216DAVISVP2,2013-11-25 02:04:00,
2013-11-24 20:09:00,25.3,15.2,30.57,East,82,0.0,0.0,65,0.00,,,0.00,WUHU216DAVISVP2,2013-11-25 02:09:00,
2013-11-24 20:14:00,25.4,15.3,30.57,East,81,0.0,0.0,65,0.00,,,0.00,WUHU216DAVISVP2,2013-11-25 02:14:00,
2013-11-24 20:19:00,25.3,15.2,30.57,East,83,0.0,0.0,65,0.00,,,0.00,WUHU216DAVISVP2,2013-11-25 02:19:00,
2013-11-24 20:24:00,25.3,15.5,30.57,East,83,0.0,0.0,66,0.00,,,0.00,WUHU216DAVISVP2,2013-11-25 02:24:00,
2013-11-24 20:29:00,25.3,15.6,30.57,East,82,0.0,0.0,66,0.00,,,0.00,WUHU216DAVISVP2,2013-11-25 02:29:00,
2013-11-24 20:34:00,25.2,15.5,30.57,SE,136,0.0,0.0,66,0.00,,,0.00,WUHU216DAVISVP2,2013-11-25 02:34:00,
2013-11-24 20:39:00,25.2,15.8,30.56,SE,136,0.0,0.0,67,0.00,,,0.00,WUHU216DAVISVP2,2013-11-25 02:39:00,
2013-11-24 20:44:00,25.3,15.9,30.57,ESE,114,0.0,0.0,67,0.00,,,0.00,WUHU216DAVISVP2,2013-11-25 02:44:00,
2013-11-24 20:49:00,25.3,15.5,30.56,East,87,0.0,0.0,66,0.00,,,0.00,WUHU216DAVISVP2,2013-11-25 02:49:00,
2013-11-24 20:54:00,25.3,15.5,30.57,East,82,0.0,0.0,66,0.00,,,0.00,WUHU216DAVISVP2,2013-11-25 02:54:00,
2013-11-24 20:59:00,25.2,15.8,30.57,East,81,0.0,0.0,67,0.00,,,0.00,WUHU216DAVISVP2,2013-11-25 02:59:00,
2013-11-24 21:04:00,25.2,15.8,30.57,East,82,0.0,0.0,67,0.00,,,0.00,WUHU216DAVISVP2,2013-11-25 03:04:00,
2013-11-24 21:09:00,25.1,15.4,30.58,East,82,0.0,0.0,66,0.00,,,0.00,WUHU216DAVISVP2,2013-11-25 03:09:00,
2013-11-24 21:14:00,25.1,15.7,30.57,East,82,0.0,0.0,67,0.00,,,0.00,WUHU216DAVISVP2,2013-11-25 03:14:00,
2013-11-24 21:19:00,25.1,15.7,30.57,East,82,0.0,0.0,67,0.00,,,0.00,WUHU216DAVISVP2,2013-11-25 03:19:00,
2013-11-24 21:24:00,25.3,15.9,30.57,East,84,0.0,0.0,67,0.00,,,0.00,WUHU216DAVISVP2,2013-11-25 03:24:00,
2013-11-24 21:29:00,25.3,15.6,30.56,SE,138,0.0,0.0,66,0.00,,,0.00,WUHU216DAVISVP2,2013-11-25 03:29:00,
2013-11-24 21:34:00,25.3,15.9,30.56,SE,137,0.0,0.0,67,0.00,,,0.00,WUHU216DAVISVP2,2013-11-25 03:34:00,
2013-11-24 21:39:00,25.3,16.3,30.56,SE,138,0.0,0.0,68,0.00,,,0.00,WUHU216DAVISVP2,2013-11-25 03:39:00,
2013-11-24 21:44:00,25.4,16.0,30.55,East,89,3.0,3.0,67,0.00,,,0.00,WUHU216DAVISVP2,2013-11-25 03:44:00,
2013-11-24 21:49:00,25.5,15.8,30.55,ESE,115,1.0,3.0,66,0.00,,,0.00,WUHU216DAVISVP2,2013-11-25 03:49:00,
2013-11-24 21:54:00,25.7,16.0,30.55,SE,126,0.0,2.0,66,0.00,,,0.00,WUHU216DAVISVP2,2013-11-25 03:54:00,
2013-11-24 21:59:00,25.8,15.7,30.56,ESE,123,2.0,3.0,65,0.00,,,0.00,WUHU216DAVISVP2,2013-11-25 03:59:00,
2013-11-24 22:04:00,25.9,15.8,30.55,ESE,110,1.0,4.0,65,0.00,,,0.00,WUHU216DAVISVP2,2013-11-25 04:04:00,
2013-11-24 22:09:00,25.9,16.2,30.55,ESE,120,1.0,4.0,66,0.00,,,0.00,WUHU216DAVISVP2,2013-11-25 04:09:00,
2013-11-24 22:14:00,25.9,16.2,30.54,ESE,119,2.0,3.0,66,0.00,,,0.00,WUHU216DAVISVP2,2013-11-25 04:14:00,
2013-11-24 22:19:00,25.9,16.5,30.54,East,100,2.0,3.0,67,0.00,,,0.00,WUHU216DAVISVP2,2013-11-25 04:19:00,
2013-11-24 22:24:00,26.0,16.3,30.54,SE,137,0.0,2.0,66,0.00,,,0.00,WUHU216DAVISVP2,2013-11-25 04:24:00,
2013-11-24 22:29:00,26.1,16.7,30.55,SSE,153,1.0,2.0,67,0.00,,,0.00,WUHU216DAVISVP2,2013-11-25 04:29:00,
2013-11-24 22:34:00,26.1,16.7,30.55,SE,146,0.0,2.0,67,0.00,,,0.00,WUHU216DAVISVP2,2013-11-25 04:34:00,
2013-11-24 22:39:00,26.1,16.7,30.54,SE,135,0.0,2.0,67,0.00,,,0.00,WUHU216DAVISVP2,2013-11-25 04:39:00,
2013-11-24 22:44:00,26.1,16.7,30.54,East,96,1.0,2.0,67,0.00,,,0.00,WUHU216DAVISVP2,2013-11-25 04:44:00,
2013-11-24 22:49:00,26.1,16.3,30.54,ESE,121,0.0,3.0,66,0.00,,,0.00,WUHU216DAVISVP2,2013-11-25 04:49:00,
2013-11-24 22:54:00,26.2,16.4,30.54,East,99,1.0,3.0,66,0.00,,,0.00,WUHU216DAVISVP2,2013-11-25 04:54:00,
2013-11-24 22:59:00,26.2,16.4,30.53,East,87,2.0,2.0,66,0.00,,,0.00,WUHU216DAVISVP2,2013-11-25 04:59:00,
2013-11-24 23:01:00,26.2,16.4,30.52,East,93,0.0,2.0,66,0.00,,,0.00,WUHU216DAVISVP2,2013-11-25 05:01:00,
2013-11-24 23:02:00,26.2,16.4,30.52,ENE,77,0.0,2.0,66,0.00,,,0.00,WUHU216DAVISVP2,2013-11-25 05:02:00,
2013-11-24 23:07:00,26.2,16.4,30.52,SE,136,0.0,2.0,66,0.00,,,0.00,WUHU216DAVISVP2,2013-11-25 05:07:00,
2013-11-24 23:12:00,26.3,16.5,30.52,East,98,2.0,3.0,66,0.00,,,0.00,WUHU216DAVISVP2,2013-11-25 05:12:00,
2013-11-24 23:17:00,26.3,16.9,30.52,ESE,122,2.0,3.0,67,0.00,,,0.00,WUHU216DAVISVP2,2013-11-25 05:17:00,
2013-11-24 23:22:00,26.3,16.5,30.52,ESE,115,1.0,3.0,66,0.00,,,0.00,WUHU216DAVISVP2,2013-11-25 05:22:00,
2013-11-24 23:27:00,26.4,16.6,30.52,SE,142,0.0,3.0,66,0.00,,,0.00,WUHU216DAVISVP2,2013-11-25 05:27:00,
2013-11-24 23:32:00,26.4,16.6,30.52,SE,124,1.0,3.0,66,0.00,,,0.00,WUHU216DAVISVP2,2013-11-25 05:32:00,
2013-11-24 23:37:00,26.5,16.7,30.51,SE,128,0.0,3.0,66,0.00,,,0.00,WUHU216DAVISVP2,2013-11-25 05:37:00,
2013-11-24 23:42:00,26.5,16.7,30.51,SE,129,0.0,2.0,66,0.00,,,0.00,WUHU216DAVISVP2,2013-11-25 05:42:00,
2013-11-24 23:47:00,26.4,16.6,30.51,SE,132,1.0,1.0,66,0.00,,,0.00,WUHU216DAVISVP2,2013-11-25 05:47:00,
2013-11-24 23:52:00,26.5,16.4,30.51,East,96,1.0,3.0,65,0.00,,,0.00,WUHU216DAVISVP2,2013-11-25 05:52:00,
2013-11-24 23:57:00,26.5,16.7,30.51,ESE,113,2.0,3.0,66,0.00,,,0.00,WUHU216DAVISVP2,2013-11-25 05:57:00,